Location: Prairie View Elementary School
(39.8322°N, 99.5698°W)
Time: 16:09:51
(UTC+00:00)

Cosmos 2227 Rocket - Pass Details

Date: 08 December 2019
Orbit: 840 x 844 km, 71.0° (Epoch: 19 January)

Event Time Altitude Azimuth Distance (km) Brightness Sun altitude
Exits shadow 11:01:39 12° 9° (N) 2,323 4.5 -30.9°
Drops below altitude 10° 11:02:04 10° 11° (N) 2,471 4.7 -30.8°
Sets 11:04:39 0° 18° (NNE) 3,409 5.5 -30.3°
